Location: Briis
(48.6240°N, 2.1211°E)
Time: 03:29:57
(UTC+00:00)

Cosmos 2173 Rocket - Pass Details

Date: 25 September 2020
Orbit: 946 x 999 km, 83.0° (Epoch: 22 October)

Event Time Altitude Azimuth Distance (km) Brightness Sun altitude
Rises 03:46:24 0° 350° (N) 3,711 7.2 -19.6°
Reaches altitude 10° 03:48:56 10° 351° (N) 2,764 6.5 -19.2°
Maximum altitude 03:55:18 88° 82° (E) 1,005 4.0 -18.2°
Drops below altitude 10° 04:01:41 10° 172° (S) 2,763 6.3 -17.2°
Sets 04:04:12 0° 173° (S) 3,708 6.9 -16.9°
